Flag for U.S.A. Weather past 2 weeks in Mobile, Alabama, U.S.A.

Now
68 °F

Scattered clouds.


Feels Like: 68 °F
Forecast: 60 / 70 °F
Wind: 14 mph from Southeast

Location: Mobile Downtown Airport

Current Time: Mar 3, 2015 at 4:54:06 PM

Latest Report: Mar 3, 2015 at 3:53 PM


Visibility: 10 mi

Pressure: 30.08 "Hg

Humidity: 84%

Dew point: 63 °F

Location of MobileLocation

Historic Weather in Mobile — Graph

°F

Mobile temperature yesterday

Maximum temperature yesterday: 68 °F (at 1:53 PM)
Minimum temperature yesterday: 56 °F (at 1:00 AM)
Average temperature yesterday: 61 °F

Past Weeks' High & Low Weather Summary

 TemperatureHumidityPressure
High72 °F (Feb 22, 1:53 PM)100% (Feb 22, 5:53 AM)30.49 "Hg (Feb 22, 5:53 AM)
Low28 °F (Feb 18, 5:53 AM)18% (Feb 18, 2:53 PM)29.62 "Hg (Feb 25, 4:02 PM)
Average49 °F75%30.19 "Hg
* Reported Feb 16 2:53 PM — Mar 3 2:53 PM, Mobile, Weather by CustomWeather, © 2015

Note: Actual official high and low records may vary slightly from our data, if they occured in-between our weather recording intervals... More about our weather records

Advertising

Mobile weather history for previous 24 hours

 ConditionsComfort  
Time TempWeatherWind HumidityBarometerVisibility
2:53 PM
Tue, Mar 3
69 °FMostly cloudy.10 mph81%30.10 "Hg10 mi
1:53 PM70 °FMostly cloudy.10 mph79%30.11 "Hg10 mi
12:53 PM70 °FOvercast.14 mph79%30.14 "Hg10 mi
11:53 AM69 °FOvercast.7 mph84%30.16 "Hg10 mi
10:53 AM66 °FOvercast.8 mph93%30.19 "Hg10 mi
9:53 AM63 °FFog.7 mph97%30.20 "Hg6 mi
8:53 AM63 °FFog.7 mph97%30.21 "Hg1 mi
7:53 AM64 °FFog.8 mph97%30.19 "Hg1 mi
6:53 AM61 °FFog.7 mph100%30.18 "Hg0 mi
5:53 AM62 °FFog.8 mph96%30.17 "Hg0 mi
4:53 AM63 °FFog.7 mph97%30.16 "Hg1 mi
4:03 AM64 °FFog.6 mph97%30.16 "Hg1 mi
3:53 AM64 °FFog.5 mph97%30.16 "Hg1 mi
3:01 AM64 °FFog.3 mph97%30.17 "Hg6 mi
1:53 AM61 °FFog.No wind97%30.19 "Hg0 mi
12:53 AM61 °FFog.No wind100%30.20 "Hg0 mi
11:53 PM
Mon, Mar 2
63 °FFog.No wind97%30.22 "Hg0 mi
10:53 PM62 °FFog.No wind100%30.23 "Hg1 mi
10:00 PM63 °FFog.No wind97%30.25 "Hg1 mi
8:53 PM61 °FFog.No wind100%30.25 "Hg4 mi
7:53 PM59 °FFog.5 mph96%30.23 "Hg1 mi
6:53 PM65 °FFog.5 mph97%30.23 "Hg4 mi
5:53 PM66 °FLight rain. Fog.6 mph93%30.23 "Hg3 mi
4:53 PM67 °FFog.3 mph90%30.23 "Hg3 mi
Weather by CustomWeather, © 2015

See weather overviewHow to use our weather pages